Weather Roundup
Issued by NWS Chicago, IL

Home | Current Version | Previous Version | Graphics & Text | Print | Product List | Glossary On
Versions: 1 2 3 4 5 6 7 8 9 10 11 12 13 14 15 16 17 18 19 20 21 22 23 24 25 26 27 28 29 30 31 32 33 34 35 36 37 38 39 40 41 42 43 44 45 46 47 48 49 50
000
NZUS59 KLOT 181203
HRRLOT

CHICAGO AREA WEATHER ROUNDUP
NATIONAL WEATHER SERVICE CHICAGO/ROMEOVILLE IL
600 AM CST WED JAN 18 2017

NOTE: "FAIR" INDICATES FEW OR NO CLOUDS BELOW 12,000 FEET WITH NO
SIGNIFICANT WEATHER AND/OR OBSTRUCTIONS TO VISIBILITY.

* THESE STATIONS ARE NOT UNDER NWS QUALITY CONTROL. THEY ALSO MAY NOT
  REPORT WEATHER SUCH AS PRECIPITATION OR FOG.

ILZ005-006-012>014-019>023-181300-
NORTHEAST ILLINOIS

CITY           SKY/WX    TMP DP  RH WIND       PRES   REMARKS
OHARE          DRIZZLE   35  33  92 W10       30.09R FOG     WCI  27
6HR MIN TEMP:  34; 6HR MAX TEMP:  35; 6HR PCP: TRACE;

MIDWAY         CLOUDY    33  32  96 W10       30.10S FOG     WCI  25
6HR MIN TEMP:  33; 6HR MAX TEMP:  34;

AURORA         CLOUDY    34  31  88 W16       30.11R WCI  24
6HR MIN TEMP:  34; 6HR MAX TEMP:  35;

LANSING*       CLOUDY    34  34 100 W9        30.12R FOG     WCI  26
JOLIET*        CLOUDY    35  35  99 W6        30.13R FOG     WCI  30
WAUKEGAN       CLOUDY    35  33  92 W5        30.07S FOG     WCI  31
6HR MIN TEMP:  34; 6HR MAX TEMP:  35;

DUPAGE AIRPORT CLOUDY    34  31  88 W10       30.09S FOG     WCI  26
6HR MIN TEMP:  34; 6HR MAX TEMP:  35;

WHEELING       CLOUDY    35  32  88 W8        30.10R WCI  29
6HR MIN TEMP:  35; 6HR MAX TEMP:  35;

MORRIS*        CLOUDY    33  32  95 W12       30.12S WCI  25
LEWIS AIRPORT* CLOUDY    33  33 100 W10       30.12R FOG     WCI  25
NORTHERLY ISL    N/A     35  33  92 W8          N/A  WCI  29
$$

WIZ051-052-058>065-066-070>072-181300-
SOUTHEAST WISCONSIN

CITY           SKY/WX    TMP DP  RH WIND       PRES   REMARKS
MILWAUKEE      CLOUDY    36  33  89 W8        30.05R FOG
6HR MIN TEMP:  36; 6HR MAX TEMP:  36;

KENOSHA*       CLOUDY    35  33  92 W9        30.07R FOG     WCI  28
RACINE*        CLOUDY    35  33  92 SW6       30.07S FOG     WCI  30
WAUKESHA       CLOUDY    32  32 100 SW8       30.06R FOG     WCI  25
$$

INZ001>003-010>013-019-020-181300-
NORTHWEST INDIANA

CITY           SKY/WX    TMP DP  RH WIND       PRES   REMARKS
GARY*          CLOUDY    36  34  93 W12G23    30.12R FOG
MICHIGAN CITY* NOT AVBL
RENSSELAER*    NOT AVBL
VALPARAISO     CLOUDY    35  34  96 W9        30.11R FOG     WCI  28
$$

LMZ740>746-181300-
SOUTHERN LAKE MICHIGAN

STATION/POSITION TIME  SKY/WX   TEMP WIND        PRES    VSBY
                                AIR  DIR/SP/G
                 (UTC)          (F)  (DEG/KT/KT) (MB)    (MI)
HARRISON CRIB    1140            36  280/ 17/ 20   N/A
BURNHAM HARBOR   1200            35  270/  9/ 14   N/A
CALUMET HARBOR   1124            35  240/  5/  8 1018.7
BURNS HARBOR     1140            34  260/ 13/ 15 1020.0R
MICHIGAN CITY    NOT AVBL
$$

ABBREVIATIONS USED IN REMARKS
   TC - TEMPERATURE IN CELSIUS
  WCI - WIND CHILL INDEX
   HX - HEAT INDEX
  VSB - VISIBILITY
$$



USA.gov is the U.S. government's official web portal to all federal, state and local government web resources and services.